Terminal Aerodrome Forecast
Issued by NWS

Home | Current Version | Previous Version | Graphics & Text | Print | Product List | Glossary Off
Versions: 1 2 3 4 5 6 7 8 9 10 11 12 13 14 15 16 17 18 19 20 21 22 23 24 25 26 27 28 29 30 31 32 33 34 35 36 37 38 39 40 41 42 43 44 45 46

000
FTUS43 KDDC 242320
TAFGCK
TAF
KGCK 242320Z 2500/2524 13016G20KT P6SM SCT019 BKN025 BKN035
     FM250300 14013KT P6SM VCTS SCT008 BKN025CB
     FM250600 16013KT 4SM BR OVC008
     FM251000 18010KT 2SM BR OVC003
     FM251500 18008KT P6SM BKN020=

USA.gov is the U.S. government's official web portal to all federal, state and local government web resources and services.